Year,Month,Day,Hour,Minute,Value (Times are PST for temperature in C)
2012,05,27,08,12,11.90
2012,05,27,08,13,11.90
2012,05,27,08,14,11.90
2012,05,27,08,15,12.00
2012,05,27,08,16,12.10
2012,05,27,08,17,12.10
2012,05,27,08,18,12.10
2012,05,27,08,19,12.10
2012,05,27,08,20,12.10
2012,05,27,08,21,12.20
2012,05,27,08,22,12.20
2012,05,27,08,23,12.20
2012,05,27,08,24,12.20
2012,05,27,08,25,12.10
2012,05,27,08,26,12.10
2012,05,27,08,27,12.10
2012,05,27,08,28,12.10
2012,05,27,08,29,12.10
2012,05,27,08,30,12.10
2012,05,27,08,31,12.20
2012,05,27,08,32,12.20
2012,05,27,08,33,12.30
2012,05,27,08,34,12.30
2012,05,27,08,35,12.30
2012,05,27,08,36,12.30
2012,05,27,08,37,12.40
2012,05,27,08,38,12.40
2012,05,27,08,39,12.40
2012,05,27,08,40,12.50
2012,05,27,08,41,12.60
2012,05,27,08,42,12.60
2012,05,27,08,43,12.60
2012,05,27,08,44,12.70
2012,05,27,08,45,12.70
2012,05,27,08,46,12.80
2012,05,27,08,47,12.80
2012,05,27,08,48,12.80
2012,05,27,08,49,12.80
2012,05,27,08,50,12.80
2012,05,27,08,51,12.80
2012,05,27,08,52,12.80
2012,05,27,08,53,12.90
2012,05,27,08,54,12.90
2012,05,27,08,55,13.00
2012,05,27,08,56,13.00
2012,05,27,08,57,13.00
2012,05,27,08,58,13.00
2012,05,27,08,59,12.90
2012,05,27,09,00,12.90
2012,05,27,09,01,13.00
2012,05,27,09,02,13.00
2012,05,27,09,03,13.10
2012,05,27,09,04,13.10
2012,05,27,09,05,13.20
2012,05,27,09,06,13.20
2012,05,27,09,07,13.30
2012,05,27,09,08,13.40
2012,05,27,09,09,13.50
2012,05,27,09,10,13.60
2012,05,27,09,11,13.70
2012,05,27,09,12,13.80
2012,05,27,09,13,13.90
2012,05,27,09,14,13.90
2012,05,27,09,15,13.90
2012,05,27,09,16,13.80
2012,05,27,09,17,13.80
2012,05,27,09,18,13.80
2012,05,27,09,19,13.80
2012,05,27,09,20,13.90
2012,05,27,09,21,13.90
2012,05,27,09,22,14.00
2012,05,27,09,23,14.00
2012,05,27,09,24,14.10
2012,05,27,09,25,14.10
2012,05,27,09,26,14.00
2012,05,27,09,27,14.00
2012,05,27,09,28,14.00
2012,05,27,09,29,14.00
2012,05,27,09,30,14.00
2012,05,27,09,31,14.00
2012,05,27,09,32,14.00
2012,05,27,09,33,14.00
2012,05,27,09,34,14.00
2012,05,27,09,35,14.10
2012,05,27,09,36,14.10
2012,05,27,09,37,14.20
2012,05,27,09,38,14.30
2012,05,27,09,39,14.30
2012,05,27,09,40,14.30
2012,05,27,09,41,14.30
2012,05,27,09,42,14.30
2012,05,27,09,43,14.30
2012,05,27,09,44,14.30
2012,05,27,09,45,14.40
2012,05,27,09,46,14.40
2012,05,27,09,47,14.50
2012,05,27,09,48,14.60
2012,05,27,09,49,14.70
2012,05,27,09,50,14.80
2012,05,27,09,51,15.00
2012,05,27,09,52,15.00
2012,05,27,09,53,15.00
2012,05,27,09,54,15.00
2012,05,27,09,55,15.00
2012,05,27,09,56,15.00
2012,05,27,09,57,15.00
2012,05,27,09,58,15.00
2012,05,27,09,59,15.00
2012,05,27,10,00,15.00
2012,05,27,10,01,15.00
2012,05,27,10,02,15.00
2012,05,27,10,03,15.00
2012,05,27,10,04,15.00
2012,05,27,10,05,15.00
2012,05,27,10,06,15.10
2012,05,27,10,07,15.20
2012,05,27,10,08,15.30
2012,05,27,10,09,15.40
2012,05,27,10,10,15.50
2012,05,27,10,11,15.60
2012,05,27,10,12,15.60
2012,05,27,10,13,15.50
2012,05,27,10,14,15.50
2012,05,27,10,15,15.50
2012,05,27,10,16,15.50
2012,05,27,10,17,15.50
2012,05,27,10,18,15.60
2012,05,27,10,19,15.50
2012,05,27,10,20,15.50
2012,05,27,10,21,15.40
2012,05,27,10,22,15.30
2012,05,27,10,23,15.40
2012,05,27,10,24,15.40
2012,05,27,10,25,15.30
2012,05,27,10,26,15.30
2012,05,27,10,27,15.30
2012,05,27,10,28,15.30
2012,05,27,10,29,15.40
2012,05,27,10,30,15.50
2012,05,27,10,31,15.50
2012,05,27,10,32,15.40
2012,05,27,10,33,15.30
2012,05,27,10,34,15.20
2012,05,27,10,35,15.00
2012,05,27,10,36,15.00
2012,05,27,10,37,15.00
2012,05,27,10,38,15.00
2012,05,27,10,39,15.00
2012,05,27,10,40,15.20
2012,05,27,10,41,15.30
2012,05,27,10,42,15.50
2012,05,27,10,43,15.60
2012,05,27,10,44,15.70
2012,05,27,10,45,15.80
2012,05,27,10,46,15.90
2012,05,27,10,47,16.00
2012,05,27,10,48,16.10
2012,05,27,10,49,16.20
2012,05,27,10,50,16.30
2012,05,27,10,51,16.40
2012,05,27,10,52,16.50
2012,05,27,10,53,16.60
2012,05,27,10,54,16.70
2012,05,27,10,55,16.70
2012,05,27,10,56,16.80
2012,05,27,10,57,16.80
2012,05,27,10,58,16.80
2012,05,27,10,59,16.80
2012,05,27,11,00,16.70
2012,05,27,11,01,16.60
2012,05,27,11,02,16.60
2012,05,27,11,03,16.50
2012,05,27,11,04,16.40
2012,05,27,11,05,16.40
2012,05,27,11,06,16.30
2012,05,27,11,07,16.30
2012,05,27,11,08,16.30
2012,05,27,11,09,16.40
2012,05,27,11,10,16.50
2012,05,27,11,11,16.60
2012,05,27,11,12,16.70
2012,05,27,11,13,16.80
2012,05,27,11,14,16.90
2012,05,27,11,15,16.90
2012,05,27,11,16,16.80
2012,05,27,11,17,16.80
2012,05,27,11,18,16.80
2012,05,27,11,19,16.80
2012,05,27,11,20,16.70
2012,05,27,11,21,16.70
2012,05,27,11,22,16.70
2012,05,27,11,23,16.70
2012,05,27,11,24,16.80
2012,05,27,11,25,16.80
2012,05,27,11,26,16.80
2012,05,27,11,27,16.90
2012,05,27,11,28,17.00
2012,05,27,11,29,17.00
2012,05,27,11,30,17.10
2012,05,27,11,31,17.10
2012,05,27,11,32,17.10
2012,05,27,11,33,17.10
2012,05,27,11,34,17.20
2012,05,27,11,35,17.20
2012,05,27,11,36,17.30
2012,05,27,11,37,17.40
2012,05,27,11,38,17.50
2012,05,27,11,39,17.60
2012,05,27,11,40,17.60
2012,05,27,11,41,17.50
2012,05,27,11,42,17.50
2012,05,27,11,43,17.40
2012,05,27,11,44,17.50
2012,05,27,11,45,17.40
2012,05,27,11,46,17.40
2012,05,27,11,47,17.40
2012,05,27,11,48,17.50
2012,05,27,11,49,17.40
2012,05,27,11,50,17.30
2012,05,27,11,51,17.20
2012,05,27,11,52,17.00
2012,05,27,11,53,16.90
2012,05,27,11,54,16.90
2012,05,27,11,55,16.80
2012,05,27,11,56,16.90
2012,05,27,11,57,16.90
2012,05,27,11,58,17.00
2012,05,27,11,59,17.10
2012,05,27,12,00,17.20
2012,05,27,12,01,17.10
2012,05,27,12,02,17.10
2012,05,27,12,03,17.20
2012,05,27,12,04,17.20
2012,05,27,12,05,17.20
2012,05,27,12,06,17.20
2012,05,27,12,07,17.20
2012,05,27,12,08,17.20
2012,05,27,12,09,17.20
2012,05,27,12,10,17.20
2012,05,27,12,11,17.20
2012,05,27,12,12,17.20
2012,05,27,12,13,17.30
2012,05,27,12,14,17.30
2012,05,27,12,15,17.30
2012,05,27,12,16,17.30
2012,05,27,12,17,17.40
2012,05,27,12,18,17.50
2012,05,27,12,19,17.60
2012,05,27,12,20,17.60
2012,05,27,12,21,17.60
2012,05,27,12,22,17.50
2012,05,27,12,23,17.40
2012,05,27,12,24,17.30
2012,05,27,12,25,17.30
2012,05,27,12,26,17.20
2012,05,27,12,27,17.20
2012,05,27,12,28,17.20
2012,05,27,12,29,17.20
2012,05,27,12,30,17.40
2012,05,27,12,31,17.50
2012,05,27,12,32,17.50
2012,05,27,12,33,17.60
2012,05,27,12,34,17.60
2012,05,27,12,35,17.60
2012,05,27,12,36,17.70
2012,05,27,12,37,17.70
2012,05,27,12,38,17.70
2012,05,27,12,39,17.80
2012,05,27,12,40,17.90
2012,05,27,12,41,18.00
2012,05,27,12,42,18.10
2012,05,27,12,43,18.20
2012,05,27,12,44,18.20
2012,05,27,12,45,18.20
2012,05,27,12,46,18.20
2012,05,27,12,47,18.30
2012,05,27,12,48,18.20
2012,05,27,12,49,18.20
2012,05,27,12,50,18.20
2012,05,27,12,51,18.10
2012,05,27,12,52,18.00
2012,05,27,12,53,18.00
2012,05,27,12,54,18.10
2012,05,27,12,55,18.00
2012,05,27,12,56,17.90
2012,05,27,12,57,17.70
2012,05,27,12,58,17.50
2012,05,27,12,59,17.40
2012,05,27,13,00,17.30
2012,05,27,13,01,17.30
2012,05,27,13,02,17.20
2012,05,27,13,03,17.20
2012,05,27,13,04,17.20
2012,05,27,13,05,17.20
2012,05,27,13,06,17.30
2012,05,27,13,07,17.30
2012,05,27,13,08,17.30
2012,05,27,13,09,17.30
2012,05,27,13,10,17.40
2012,05,27,13,11,17.40
2012,05,27,13,12,17.40
2012,05,27,13,13,17.50
2012,05,27,13,14,17.50
2012,05,27,13,15,17.60
2012,05,27,13,16,17.70
2012,05,27,13,17,17.70
2012,05,27,13,18,17.80
2012,05,27,13,19,17.80
2012,05,27,13,20,17.80
2012,05,27,13,21,17.80
2012,05,27,13,22,17.70
2012,05,27,13,23,17.70
2012,05,27,13,24,17.70
2012,05,27,13,25,17.70
2012,05,27,13,26,17.80
2012,05,27,13,27,17.80
2012,05,27,13,28,17.80
2012,05,27,13,29,17.80
2012,05,27,13,30,17.90
2012,05,27,13,31,17.90
2012,05,27,13,32,17.90
2012,05,27,13,33,17.90
2012,05,27,13,34,17.90
2012,05,27,13,35,17.80
2012,05,27,13,36,17.80
2012,05,27,13,37,17.90
2012,05,27,13,38,17.80
2012,05,27,13,39,17.80
2012,05,27,13,40,17.80
2012,05,27,13,41,17.80
2012,05,27,13,42,17.80
2012,05,27,13,43,17.90
2012,05,27,13,44,18.00
2012,05,27,13,45,18.10
2012,05,27,13,46,18.00
2012,05,27,13,47,18.00
2012,05,27,13,48,18.10
2012,05,27,13,49,18.10
2012,05,27,13,50,18.00
2012,05,27,13,51,17.90
2012,05,27,13,52,17.90
2012,05,27,13,53,17.90
2012,05,27,13,54,17.80
2012,05,27,13,55,17.80
2012,05,27,13,56,17.70
2012,05,27,13,57,17.70
2012,05,27,13,58,17.60
2012,05,27,13,59,17.50
2012,05,27,14,00,17.40
2012,05,27,14,01,17.40
2012,05,27,14,02,17.30
2012,05,27,14,03,17.10
2012,05,27,14,04,17.00
2012,05,27,14,05,16.80
2012,05,27,14,06,16.70
2012,05,27,14,07,16.60
2012,05,27,14,08,16.40
2012,05,27,14,09,16.30
2012,05,27,14,10,16.30
2012,05,27,14,11,16.30
2012,05,27,14,12,16.30
2012,05,27,14,13,16.30
2012,05,27,14,14,16.20
2012,05,27,14,15,16.20
2012,05,27,14,16,16.20
2012,05,27,14,17,16.20
2012,05,27,14,18,16.20
2012,05,27,14,19,16.30
2012,05,27,14,20,16.30
2012,05,27,14,21,16.40
2012,05,27,14,22,16.40
2012,05,27,14,23,16.50
2012,05,27,14,24,16.60
2012,05,27,14,25,16.60
2012,05,27,14,26,16.60
2012,05,27,14,27,16.60
2012,05,27,14,28,16.50
2012,05,27,14,29,16.50
2012,05,27,14,30,16.40
2012,05,27,14,31,16.30
2012,05,27,14,32,16.30
2012,05,27,14,33,16.40
2012,05,27,14,34,16.50
2012,05,27,14,35,16.50
2012,05,27,14,36,16.60
2012,05,27,14,37,16.60
2012,05,27,14,38,16.50
2012,05,27,14,39,16.40
2012,05,27,14,40,16.30
2012,05,27,14,41,16.30
2012,05,27,14,42,16.30
2012,05,27,14,43,16.30
2012,05,27,14,44,16.20
2012,05,27,14,45,16.10
2012,05,27,14,46,16.00
2012,05,27,14,47,16.00
2012,05,27,14,48,15.90
2012,05,27,14,49,15.90
2012,05,27,14,50,15.80
2012,05,27,14,51,15.80
2012,05,27,14,52,15.70
2012,05,27,14,53,15.70
2012,05,27,14,54,15.60
2012,05,27,14,55,15.50
2012,05,27,14,56,15.50
2012,05,27,14,57,15.50
2012,05,27,14,58,15.50
2012,05,27,14,59,15.60
2012,05,27,15,00,15.50
2012,05,27,15,01,15.50
2012,05,27,15,02,15.50
2012,05,27,15,03,15.40
2012,05,27,15,04,15.40
2012,05,27,15,05,15.40
2012,05,27,15,06,15.40
2012,05,27,15,07,15.50
2012,05,27,15,08,15.60
2012,05,27,15,09,15.60
2012,05,27,15,10,15.50
2012,05,27,15,11,15.60
2012,05,27,15,12,15.70
2012,05,27,15,13,15.80
2012,05,27,15,14,15.90
2012,05,27,15,15,15.90
2012,05,27,15,16,16.00
2012,05,27,15,17,16.00
2012,05,27,15,18,16.00
2012,05,27,15,19,16.00
2012,05,27,15,20,16.10
2012,05,27,15,21,16.10
2012,05,27,15,22,16.10
2012,05,27,15,23,16.00
2012,05,27,15,24,16.00
2012,05,27,15,25,15.90
2012,05,27,15,26,15.90
2012,05,27,15,27,15.90
2012,05,27,15,28,15.80
2012,05,27,15,29,15.80
2012,05,27,15,30,15.80
2012,05,27,15,31,15.90
2012,05,27,15,32,15.90
2012,05,27,15,33,16.00
2012,05,27,15,34,16.00
2012,05,27,15,35,16.10
2012,05,27,15,36,16.10
2012,05,27,15,37,16.20
2012,05,27,15,38,16.10
2012,05,27,15,39,16.10
2012,05,27,15,40,16.10
2012,05,27,15,41,16.10
2012,05,27,15,42,16.20
2012,05,27,15,43,16.20
2012,05,27,15,44,16.30
2012,05,27,15,45,16.30
2012,05,27,15,46,16.30
2012,05,27,15,47,16.30
2012,05,27,15,48,16.30
2012,05,27,15,49,16.30
2012,05,27,15,50,16.30
2012,05,27,15,51,16.30
2012,05,27,15,52,16.30
2012,05,27,15,53,16.30
2012,05,27,15,54,16.30
2012,05,27,15,55,16.30
2012,05,27,15,56,16.40
2012,05,27,15,57,16.50
2012,05,27,15,58,16.60
2012,05,27,15,59,16.70
2012,05,27,16,00,16.70
2012,05,27,16,01,16.80
2012,05,27,16,02,16.90
2012,05,27,16,03,16.90
2012,05,27,16,04,16.90
2012,05,27,16,05,17.00
2012,05,27,16,06,17.10
2012,05,27,16,07,17.10
2012,05,27,16,08,17.10
2012,05,27,16,09,17.20
2012,05,27,16,10,17.20
2012,05,27,16,11,17.20
2012,05,27,16,12,17.30
2012,05,27,16,13,17.40
2012,05,27,16,14,17.50
2012,05,27,16,15,17.60
2012,05,27,16,16,17.70
2012,05,27,16,17,17.80
2012,05,27,16,18,17.80
2012,05,27,16,19,17.80
2012,05,27,16,20,17.70
2012,05,27,16,21,17.60
2012,05,27,16,22,17.40
2012,05,27,16,23,17.40
2012,05,27,16,24,17.30
2012,05,27,16,25,17.40
2012,05,27,16,26,17.40
2012,05,27,16,27,17.50
2012,05,27,16,28,17.50
2012,05,27,16,29,17.50
2012,05,27,16,30,17.50
2012,05,27,16,31,17.40
2012,05,27,16,32,17.40
2012,05,27,16,33,17.40
2012,05,27,16,34,17.40
2012,05,27,16,35,17.40
2012,05,27,16,36,17.50
2012,05,27,16,37,17.50
2012,05,27,16,38,17.50
2012,05,27,16,39,17.50
2012,05,27,16,40,17.60
2012,05,27,16,41,17.60
2012,05,27,16,42,17.60
2012,05,27,16,43,17.70
2012,05,27,16,44,17.70
2012,05,27,16,45,17.70
2012,05,27,16,46,17.70
2012,05,27,16,47,17.70
2012,05,27,16,48,17.60
2012,05,27,16,49,17.50
2012,05,27,16,50,17.50
2012,05,27,16,51,17.50
2012,05,27,16,52,17.50
2012,05,27,16,53,17.60
2012,05,27,16,54,17.50
2012,05,27,16,55,17.40
2012,05,27,16,56,17.40
2012,05,27,16,57,17.40
2012,05,27,16,58,17.40
2012,05,27,16,59,17.40
2012,05,27,17,00,17.40
2012,05,27,17,01,17.40
2012,05,27,17,02,17.40
2012,05,27,17,03,17.30
2012,05,27,17,04,17.30
2012,05,27,17,05,17.30
2012,05,27,17,06,17.30
2012,05,27,17,07,17.20
2012,05,27,17,08,17.10
2012,05,27,17,09,17.10
2012,05,27,17,10,16.90
2012,05,27,17,11,16.80
2012,05,27,17,12,16.80
2012,05,27,17,13,16.80
2012,05,27,17,14,16.70
2012,05,27,17,15,16.70
2012,05,27,17,16,16.70
2012,05,27,17,17,16.70
2012,05,27,17,18,16.70
2012,05,27,17,19,16.70
2012,05,27,17,20,16.70
2012,05,27,17,21,16.80
2012,05,27,17,22,16.80
2012,05,27,17,23,16.80
2012,05,27,17,24,16.80
2012,05,27,17,25,16.80
2012,05,27,17,26,16.80
2012,05,27,17,27,16.80
2012,05,27,17,28,16.80
2012,05,27,17,29,16.70
2012,05,27,17,30,16.70
2012,05,27,17,31,16.60
2012,05,27,17,32,16.50
2012,05,27,17,33,16.30
2012,05,27,17,34,16.20
2012,05,27,17,35,16.20
2012,05,27,17,36,16.20
2012,05,27,17,37,16.10
2012,05,27,17,38,16.10
2012,05,27,17,39,16.10
2012,05,27,17,40,16.10
2012,05,27,17,41,16.10
2012,05,27,17,42,16.10
2012,05,27,17,43,16.20
2012,05,27,17,44,16.20
2012,05,27,17,45,16.20
2012,05,27,17,46,16.20
2012,05,27,17,47,16.20
2012,05,27,17,48,16.20
2012,05,27,17,49,16.20
2012,05,27,17,50,16.20
2012,05,27,17,51,16.20
2012,05,27,17,52,16.30
2012,05,27,17,53,16.30
2012,05,27,17,54,16.30
2012,05,27,17,55,16.30
2012,05,27,17,56,16.30
2012,05,27,17,57,16.30
2012,05,27,17,58,16.30
2012,05,27,17,59,16.30
2012,05,27,18,00,16.30
2012,05,27,18,01,16.40
2012,05,27,18,02,16.30
2012,05,27,18,03,16.30
2012,05,27,18,04,16.20
2012,05,27,18,05,16.20
2012,05,27,18,06,16.10
2012,05,27,18,07,16.10
2012,05,27,18,08,16.10
2012,05,27,18,09,16.10
2012,05,27,18,10,16.10
2012,05,27,18,11,16.10
2012,05,27,18,12,16.00
2012,05,27,18,13,16.00
2012,05,27,18,14,16.00
2012,05,27,18,15,16.00
2012,05,27,18,16,16.00
2012,05,27,18,17,16.00
2012,05,27,18,18,16.00
2012,05,27,18,19,16.00
2012,05,27,18,20,16.00
2012,05,27,18,21,16.00
2012,05,27,18,22,16.00
2012,05,27,18,23,16.00
